DW5268 Skutvik NO current weather conditions

sailwx.info

Wind from 012

Air temperature 11.7° C
Dewpoint 10.6° C

Last reported at 2019-Aug-21 04:01 UTC.
Time now 2019-Aug-21 04:40 UTC

Location: N 68°01' E 015°20'.
View on Google Maps.

See reports from other nearby stations

  
Tides and Currents Weather Stations Pressure Air Temp Water Temp Dewpoint Dewpoint Depression Visibility Wind Speed Wind Dir Waves Ship Positions
date/time (UTC)wind fromknots sea level pressurealtimeterstation pressurevisibilityair tempwater tempwave heightnotes
2019-Aug-21 04:01 012 11.7
2019-Aug-21 03:45 013 11.7
2019-Aug-21 03:30 013 0 11.7
2019-Aug-21 03:15 011 11.7
2019-Aug-21 03:00 011 11.7
2019-Aug-21 02:46 011 11.7
2019-Aug-21 02:30 009 11.1
2019-Aug-21 02:15 009 11.1
2019-Aug-21 02:00 009 10.6
2019-Aug-21 01:45 009 10.6
2019-Aug-21 01:30 009 10.6
2019-Aug-21 01:15 047 10.6
2019-Aug-21 01:00 047 10.0
2019-Aug-21 00:45 047 10.0
2019-Aug-21 00:30 047 10.0
2019-Aug-21 00:15 047 9.4
2019-Aug-21 00:00 047 9.4
2019-Aug-20 23:45 047 9.4
2019-Aug-20 23:30 047 10.0
2019-Aug-20 23:15 047 10.0
2019-Aug-20 23:00 047 10.0
2019-Aug-20 22:46 047 10.6
2019-Aug-20 22:32 047 10.6
2019-Aug-20 22:17 047 11.1
2019-Aug-20 22:02 047 11.7
2019-Aug-20 21:47 050 2 11.7
2019-Aug-20 21:31 053 11.7
2019-Aug-20 21:16 037 11.7
2019-Aug-20 21:02 036 11.7
2019-Aug-20 20:47 036 11.7
2019-Aug-20 20:31 036 12.2
2019-Aug-20 20:17 036 12.2
2019-Aug-20 20:02 036 12.8
2019-Aug-20 19:47 037 13.3
2019-Aug-20 19:32 317 13.9
2019-Aug-20 19:16 317 13.9
2019-Aug-20 19:01 317 14.4
2019-Aug-20 18:46 285 15.0
2019-Aug-20 18:32 285 15.0
2019-Aug-20 18:16 285 15.6
2019-Aug-20 18:01 284 16.7
2019-Aug-20 17:46 284 17.8
2019-Aug-20 17:32 284 17.8
2019-Aug-20 17:16 284 17.8
2019-Aug-20 17:01 284 18.9
2019-Aug-20 16:45 284 19.4
2019-Aug-20 16:30 284 19.4
2019-Aug-20 16:16 286 0 18.9
2019-Aug-20 16:01 290 18.3
2019-Aug-20 15:46 290 18.3
2019-Aug-20 15:31 291 18.3
2019-Aug-20 15:15 291 17.8
2019-Aug-20 15:01 329 16.7
2019-Aug-20 14:46 323 16.1
2019-Aug-20 14:30 313 16.7
2019-Aug-20 14:15 340 0 17.2
2019-Aug-20 14:00 294 0 18.9
2019-Aug-20 13:45 245 3 20.0
2019-Aug-20 13:30 289 2 20.0
2019-Aug-20 13:15 230 3 19.4
2019-Aug-20 13:00 208 2 19.4
2019-Aug-20 12:45 285 1 17.8
2019-Aug-20 12:30 303 2 16.1
2019-Aug-20 12:15 323 1 16.7
2019-Aug-20 12:00 288 0 16.7
2019-Aug-20 11:45 315 1 16.1
2019-Aug-20 11:30 333 1 15.6
2019-Aug-20 11:17 005 2 15.6
2019-Aug-20 11:02 329 2 16.7
2019-Aug-20 10:47 360 0 17.8
2019-Aug-20 10:32 225 17.2
2019-Aug-20 10:16 216 17.2
2019-Aug-20 10:02 216 17.2
2019-Aug-20 09:46 216 16.7
2019-Aug-20 09:31 216 16.1
2019-Aug-20 09:15 215 1 15.6
2019-Aug-20 09:01 222 3 16.1
2019-Aug-20 08:46 292 3 15.6
2019-Aug-20 08:31 208 5 15.6
2019-Aug-20 08:16 207 3 15.0
2019-Aug-20 08:00 213 3 15.0
2019-Aug-20 07:46 205 5 14.4
2019-Aug-20 07:30 207 4 14.4
2019-Aug-20 07:16 208 2 14.4
2019-Aug-20 07:00 216 0 14.4
2019-Aug-20 06:46 209 4 14.4
2019-Aug-20 06:30 214 2 13.9
2019-Aug-20 06:15 203 5 13.9
2019-Aug-20 06:00 218 1 13.3
2019-Aug-20 05:45 098 13.3
2019-Aug-20 05:30 323 12.8
2019-Aug-20 05:16 344 0 12.8
2019-Aug-20 05:01 322 0 12.8
2019-Aug-20 04:46 299 0 12.8
2019-Aug-20 04:31 324 1 12.8
2019-Aug-20 04:16 313 1 12.8
2019-Aug-20 04:01 292 1 12.8
2019-Aug-20 03:46 319 3 12.8
2019-Aug-20 03:31 303 1 12.8
2019-Aug-20 03:16 304 0 12.8
2019-Aug-20 03:01 317 0 12.8
2019-Aug-20 02:46 331 0 12.8
2019-Aug-20 02:31 328 12.8
2019-Aug-20 02:16 309 12.8
2019-Aug-20 02:01 304 12.8
2019-Aug-20 01:45 304 12.8
2019-Aug-20 01:30 304 0 12.8
2019-Aug-20 01:16 294 1 12.8
2019-Aug-20 01:01 317 0 12.8
2019-Aug-20 00:46 344 0 12.2
2019-Aug-20 00:30 302 0 12.2
2019-Aug-20 00:15 319 1 12.2
2019-Aug-20 00:00 335 0 12.2
2019-Aug-19 23:45 355 2 12.2
2019-Aug-19 23:30 327 1 11.7
2019-Aug-19 23:16 214 12.2
2019-Aug-19 23:00 214 2 12.2
2019-Aug-19 22:45 205 1 12.2
2019-Aug-19 22:30 242 0 12.8
2019-Aug-19 22:15 274 12.8
2019-Aug-19 22:00 220 5 13.3
2019-Aug-19 21:45 208 3 13.3
2019-Aug-19 21:30 222 1 13.3
2019-Aug-19 21:15 214 4 13.3
2019-Aug-19 21:00 204 2 13.3
2019-Aug-19 20:45 326 13.3
2019-Aug-19 20:30 323 13.3
2019-Aug-19 20:18 312 0 13.3
2019-Aug-19 20:01 264 1 13.9
2019-Aug-19 19:46 245 0 13.9
2019-Aug-19 19:31 243 14.4
2019-Aug-19 19:18 243 15.0
2019-Aug-19 19:01 244 1 15.0
2019-Aug-19 18:46 321 1 15.0
2019-Aug-19 18:31 315 3 15.0
2019-Aug-19 18:18 282 3 15.0
2019-Aug-19 18:03 331 2 15.0
2019-Aug-19 17:46 261 3 15.0
2019-Aug-19 17:31 313 4 15.0
2019-Aug-19 17:16 298 4 15.6
2019-Aug-19 17:01 323 4 16.7
2019-Aug-19 16:46 292 0 17.8
2019-Aug-19 16:33 200 17.8
2019-Aug-19 16:16 201 18.9
2019-Aug-19 16:02 220 20.6
2019-Aug-19 15:46 221 21.7
2019-Aug-19 15:30 223 0 22.2
2019-Aug-19 15:16 223 0 22.8
2019-Aug-19 15:01 223 2 22.8
2019-Aug-19 14:46 225 0 22.8
2019-Aug-19 14:32 251 0 22.2
2019-Aug-19 14:17 259 0 22.2
2019-Aug-19 14:01 292 1 21.7
2019-Aug-19 13:47 241 1 19.4
2019-Aug-19 13:31 299 0 20.6
2019-Aug-19 13:16 260 1 22.2
2019-Aug-19 13:01 211 1 23.3
2019-Aug-19 12:46 206 1 23.9
2019-Aug-19 12:32 207 2 23.9
2019-Aug-19 12:16 207 0 23.9
2019-Aug-19 12:01 207 0 23.3
2019-Aug-19 11:45 207 1 22.8
2019-Aug-19 11:30 207 0 22.2
2019-Aug-19 11:15 206 21.1
2019-Aug-19 11:00 206 21.1
2019-Aug-19 10:45 206 21.1
2019-Aug-19 10:30 206 0 21.1
2019-Aug-19 10:15 206 20.0
2019-Aug-19 10:00 206 19.4
2019-Aug-19 09:45 206 18.9
2019-Aug-19 09:30 206 18.3
2019-Aug-19 09:16 206 1 18.3
2019-Aug-19 09:03 205 3 17.8
2019-Aug-19 08:47 204 16.7
2019-Aug-19 08:32 207 16.7
2019-Aug-19 08:16 207 16.7
2019-Aug-19 08:01 207 16.1
2019-Aug-19 07:45 206 15.0
2019-Aug-19 07:30 206 14.4
2019-Aug-19 07:16 207 13.9
2019-Aug-19 07:01 207 13.9
2019-Aug-19 06:46 207 13.9
2019-Aug-19 06:30 207 13.3
2019-Aug-19 06:15 207 13.3
2019-Aug-19 06:01 205 12.8
2019-Aug-19 05:45 201 12.8
2019-Aug-19 05:30 201 1 12.2
2019-Aug-19 05:15 205 0 12.2
2019-Aug-19 05:00 201 11.7
2019-Aug-19 04:45 201 11.1
2019-Aug-19 04:30 201 11.1
2019-Aug-19 04:15 201 11.1
2019-Aug-19 04:00 201 11.1